Temp
9 8 8 8 7 7 7 7 7 6 6 6 6 5 5 5 6 7 7 6 7 6
9 8 8 8 7 7 7 7 7 6 6 5 5 5 5 4 4 6 6 6 6 5
9 8 8 7 7 7 6 6 6 6 5 5 5 5 5 4 4 5 4 4 4 4
8 8 7 7 6 6 6 5 5 5 4 4 4 4 4 4 4 4 4 3 3 3
8 7 7 6 6 5 5 4 4 4 3 3 3 3 3 3 4 4 3 3 2 2
7 7 6 6 5 5 4 3 3 2 2 2 2 2 3 2 2 2 2 2 2 2
7 6 6 5 5 4 3 2 1 1 1 1 1 2 2 2 1 1 1 2 2 2
6 6 5 4 4 3 2 1 1 1 1 1 1 2 2 1 0 0 1 1 2 2
5 5 4 3 3 1 1 1 1 1 0 0 1 1 1 0 -0 -0 0 1 1 1
5 4 3 2 1 1 1 1 0 0 0 0 0 1 -0 -0 -1 -1 -0 -0 0 1
4 3 2 2 1 1 0 -0 -0 -0 0 -0 0 -0 -1 -1 -1 -1 -1 -1 -1 -1
3 2 1 1 1 0 -0 -0 -0 -0 -0 -1 -1 -1 -1 -2 -2 -2 -2 -1 -1 -1
3 2 1 1 0 -0 -0 -0 -0 -1 -1 -1 -1 -2 -2 -2 -2 -2 -2 -2 -2 -2
3 1 1 0 -0 -0 -1 -1 -1 -1 -1 -2 -2 -2 -2 -3 -3 -3 -3 -2 -2 -2
Height
858 856 854 851 848 846 842 838 834 832 828 825 821 818 814 810 807 802 798 793 788 780
859 856 854 853 850 846 842 838 834 830 826 822 819 815 811 808 805 800 796 793 789 785
860 857 856 853 849 846 841 837 832 828 824 820 815 811 807 803 799 796 793 790 784 778
859 857 855 852 848 845 840 836 832 828 824 819 814 809 805 800 796 792 788 783 777 770
859 857 854 851 847 843 839 835 831 827 823 818 813 809 804 799 795 791 785 780 774 768
859 855 852 849 846 842 838 834 830 826 822 817 812 807 803 799 794 789 784 777 771 764
858 855 851 848 844 841 837 832 828 824 820 816 811 806 802 797 791 785 779 773 766 760
858 855 851 847 844 840 835 831 828 823 819 815 811 806 801 795 788 781 773 766 761 755
857 854 851 847 843 839 835 831 827 822 819 815 810 805 800 794 786 778 770 761 754 749
857 854 851 847 843 839 835 830 826 822 818 814 809 805 798 791 783 775 767 760 751 743
856 853 850 846 843 839 835 831 826 823 818 813 808 802 795 788 779 772 764 756 748 739
855 852 849 846 842 839 835 831 827 823 818 813 807 801 793 785 776 768 760 752 744 735
854 851 849 846 842 839 835 832 828 823 818 813 807 800 793 785 776 766 757 748 739 731
852 850 849 846 843 839 835 832 828 823 817 811 805 799 792 785 776 768 757 746 736 728
Wind_Speed
22 26 27 28 28 29 32 34 34 36 36 36 36 33 28 25 24 21 27 28 28 32
19 23 24 26 27 30 32 33 35 35 38 36 35 35 33 28 23 20 21 25 27 28
17 20 22 25 27 29 30 32 34 35 36 35 33 34 33 33 30 22 22 27 29 30
18 21 23 25 27 29 30 31 31 33 33 31 32 31 29 31 29 23 30 31 28 35
18 21 25 27 29 31 32 31 30 30 29 29 30 30 31 30 27 30 32 30 34 33
19 23 25 28 30 31 31 29 29 28 28 29 29 30 27 34 31 30 32 32 32 32
20 23 24 27 29 30 34 29 30 29 30 29 29 27 29 32 33 32 31 31 31 31
19 20 23 26 27 35 32 30 30 32 31 30 28 26 35 36 34 33 35 32 30 28
17 20 22 23 31 29 29 31 32 32 29 29 28 29 34 37 36 33 32 34 33 30
17 19 19 27 26 28 30 31 31 29 29 30 28 31 36 38 36 32 32 33 34 34
16 15 23 24 25 27 29 29 27 27 27 30 28 33 37 40 34 32 33 33 33 34
13 18 20 23 25 26 27 27 25 26 26 29 29 33 38 40 36 33 32 32 33 34
14 16 18 20 23 24 25 23 24 25 25 26 28 32 36 40 35 33 35 34 34 32
15 16 16 17 21 23 24 23 23 23 26 26 28 30 35 39 34 33 35 33 33 34
Wind_Direction
31 26 23 19 13 11 6 4 1 359 359 358 358 358 356 351 339 324 330 331 331 334
32 26 20 14 11 6 4 0 357 357 354 353 351 351 353 347 338 337 331 330 326 323
31 24 19 12 9 5 3 360 357 354 351 348 345 342 345 344 342 333 336 331 325 326
27 20 15 13 8 5 1 0 357 352 348 345 343 342 339 334 336 332 332 331 328 324
22 14 9 8 6 3 2 359 355 350 346 342 340 340 337 335 339 333 327 325 323 319
19 11 10 5 2 3 1 357 353 350 346 344 342 340 344 341 337 331 324 320 315 314
15 12 9 3 2 0 354 355 355 354 353 348 346 346 342 338 334 328 321 319 316 312
15 13 7 6 1 352 359 4 1 357 354 350 345 345 343 342 335 329 323 318 316 312
16 11 11 7 358 3 5 5 2 355 347 343 340 342 344 344 337 330 327 321 319 314
19 16 14 6 11 9 3 359 352 347 346 344 342 344 344 344 334 326 322 320 318 313
21 23 11 16 15 8 2 356 352 351 350 346 345 346 345 344 336 330 325 321 317 314
24 15 18 19 14 8 1 355 356 351 352 347 346 346 349 346 339 330 326 324 323 318
23 20 22 18 15 11 9 360 350 352 352 352 347 349 351 350 341 334 332 331 329 328
23 25 19 19 19 14 9 357 354 352 353 350 351 349 350 353 349 343 336 334 335 336